Location: Unspecified
(42.3650°N, 71.1030°W)
Time: 02:36:43
(UTC+00:00)

ISS - Visible Passes

Search period start: 22 May 2024 00:00
Search period end: 01 June 2024 00:00
Orbit: 409 x 414 km, 51.6° (Epoch: 21 May)

Date Brightness Start Highest point End Pass type
(mag) Time Alt. Az. Time Alt. Az. Time Alt. Az.
22 May -1.3 01:11:55 10° NW 01:14:22 19° N 01:16:49 10° ENE visible
22 May -3.0 02:48:16 10° NW 02:51:11 50° N 02:51:11 50° N visible
23 May -2.5 01:58:22 10° NW 02:01:28 35° NNE 02:02:55 23° ENE visible
23 May -1.1 03:35:03 10° WNW 03:35:42 14° WNW 03:35:42 14° WNW visible
24 May -1.9 01:08:26 10° NW 01:11:17 26° NNE 01:14:09 10° ENE visible
24 May -3.0 02:44:51 10° WNW 02:47:24 46° W 02:47:24 46° W visible
25 May -3.8 01:54:44 10° NW 01:58:04 75° NNE 01:59:06 40° ESE visible
26 May -3.0 01:04:40 10° NW 01:07:53 45° NNE 01:10:48 12° ESE visible
26 May -1.9 02:41:38 10° W 02:43:35 22° WSW 02:43:35 22° WSW visible
27 May -3.1 01:51:08 10° WNW 01:54:19 42° SW 01:55:17 32° S visible
28 May -3.8 01:00:50 10° WNW 01:04:09 78° SW 01:06:59 13° SE visible
29 May -1.6 01:47:57 10° W 01:50:11 17° SW 01:51:29 14° SSW visible
30 May -2.4 00:57:06 10° WNW 01:00:03 30° SW 01:02:59 10° SSE visible
